DW1980 Weather Reports


time (UTC)temp
C
wind
direction
speed
KPH
gust
KPH
rain 1hr
cm
rain 24hr
cm
rain mn
cm
humidity
%
barometer
mb
20260506044850 15 207 0.0 0.0 0.00 0.00 0.00 84 1011.1
20260506044618 15 207 0.0 0.0 0.00 0.00 0.00 84 1010.8
20260506044542 15 0 0.0 0.0 0.00 0.00 0.00 84 1010.7
20260506044341 15 207 0.0 0.0 0.00 0.00 0.00 83 1011.1
20260506043854 15 207 0.0 0.0 0.00 0.00 0.00 83 1011.1
20260506043345 15 207 0.0 0.0 0.00 0.00 0.00 82 1011.1
20260506043110 15 207 0.0 0.0 0.00 0.00 0.00 82 1010.8
20260506043048 15 0 0.0 0.0 0.00 0.00 0.00 82 1010.8
20260506042851 15 207 0.0 0.0 0.00 0.00 0.00 82 1011.1
20260506042342 15 207 0.0 0.0 0.00 0.00 0.00 82 1011.0
20260506041851 15 173 0.0 0.0 0.00 0.00 0.00 82 1010.9
20260506041619 15 184 0.0 0.0 0.00 0.00 0.00 81 1010.7
20260506041544 15 0 0.0 0.0 0.00 0.00 0.00 81 1010.6
20260506041341 16 184 0.0 0.0 0.00 0.00 0.00 81 1010.9
20260506040853 16 158 0.0 0.0 0.00 0.00 0.00 81 1010.9
20260506040344 16 149 0.0 1.6 0.00 0.00 0.00 81 1010.8
20260506040107 16 149 0.0 3.2 0.00 0.00 0.00 81 1010.6
20260506040052 16 0 0.0 3.2 0.00 0.00 0.00 80 1010.6
20260506035849 16 149 0.0 3.2 0.00 0.00 0.00 81 1010.9
20260506035341 16 141 0.0 1.6 0.00 0.00 0.00 81 1010.9
20260506034851 16 186 0.0 3.2 0.00 0.00 0.00 81 1010.9
20260506034620 16 188 0.0 3.2 0.00 0.00 0.00 80 1010.7
20260506034600 16 0 0.0 4.8 0.00 0.00 0.00 80 1010.7
20260506034345 16 167 1.6 3.2 0.00 0.00 0.00 80 1010.9
20260506033836 16 167 1.6 3.2 0.00 0.00 0.00 79 1011.0
20260506033409 17 167 1.6 4.8 0.00 0.00 0.00 79 1010.9
20260506033108 16 168 0.0 3.2 0.00 0.00 0.00 79 1010.7
20260506033043 16 168 1.6 4.8 0.00 0.00 0.00 78 1010.6
20260506032836 17 168 1.6 4.8 0.00 0.00 0.00 79 1010.8
20260506032346 17 188 1.6 4.8 0.00 0.00 0.00 78 1010.8
20260506031916 17 208 1.6 4.8 0.00 0.00 0.00 78 1010.6
20260506031544 17 159 1.6 6.4 0.00 0.00 0.00 78 1010.3
20260506031506 17 171 1.6 4.8 0.00 0.00 0.00 78 1010.4
20260506031406 17 166 3.2 4.8 0.00 0.00 0.00 78 1010.7
20260506030836 17 186 1.6 4.8 0.00 0.00 0.00 77 1010.8
20260506030347 17 182 0.0 4.8 0.00 0.00 0.00 77 1010.8
20260506030107 17 182 0.0 4.8 0.00 0.00 0.00 76 1010.5
20260506030041 17 0 0.0 6.4 0.00 0.00 0.00 76 1010.4
20260506025854 17 181 1.6 4.8 0.00 0.00 0.00 77 1010.8
20260506025345 17 173 1.6 6.4 0.00 0.00 0.00 76 1010.7
20260506024855 18 173 1.6 6.4 0.00 0.00 0.00 75 1010.7
20260506024617 17 168 1.6 6.4 0.00 0.00 0.00 75 1010.5
20260506024546 17 168 1.6 6.4 0.00 0.00 0.00 74 1010.5
20260506024343 18 172 1.6 3.2 0.00 0.00 0.00 74 1010.8
20260506023853 18 178 1.6 4.8 0.00 0.00 0.00 74 1010.8
20260506023344 18 182 3.2 4.8 0.00 0.00 0.00 73 1010.8
20260506023110 18 159 1.6 4.8 0.00 0.00 0.00 73 1010.6
20260506023038 18 185 1.6 6.4 0.00 0.00 0.00 72 1010.5
20260506022853 18 205 3.2 6.4 0.00 0.00 0.00 74 1010.8
20260506022343 18 184 3.2 6.4 0.00 0.00 0.00 73 1010.8
20260506021854 18 194 4.8 8.0 0.00 0.00 0.00 72 1010.8
20260506021602 18 173 3.2 11.3 0.00 0.00 0.00 73 1010.5
20260506021550 18 171 3.2 11.3 0.00 0.00 0.00 72 1010.3
20260506021406 18 159 4.8 11.3 0.00 0.00 0.00 73 1010.7
20260506020855 18 179 4.8 9.7 0.00 0.00 0.00 73 1010.7
20260506020347 18 186 3.2 8.0 0.00 0.00 0.00 73 1010.7
20260506020113 18 188 1.6 8.0 0.00 0.00 0.00 73 1010.5
20260506020041 18 0 3.2 8.0 0.00 0.00 0.00 73 1010.4
20260506015916 18 182 4.8 8.0 0.00 0.00 0.00 73 1010.6
20260506015345 18 207 3.2 8.0 0.00 0.00 0.00 75 1010.6
20260506014836 18 174 3.2 8.0 0.00 0.00 0.00 74 1010.6
20260506014605 17 196 1.6 6.4 0.00 0.00 0.00 75 1010.2
20260506014542 17 213 1.6 8.0 0.00 0.00 0.00 74 1010.1
20260506014347 18 229 1.6 8.0 0.00 0.00 0.00 75 1010.5
20260506013838 18 171 3.2 8.0 0.00 0.00 0.00 74 1010.4
20260506013349 18 176 1.6 11.3 0.00 0.00 0.00 74 1010.3
20260506013113 18 180 3.2 11.3 0.00 0.00 0.00 74 1010.0
20260506013044 18 194 3.2 11.3 0.00 0.00 0.00 74 1009.9
20260506012915 18 165 3.2 11.3 0.00 0.00 0.00 74 1010.2
20260506012345 18 188 4.8 11.3 0.00 0.00 0.00 74 1010.1
20260506011855 18 190 1.6 9.7 0.00 0.00 0.00 76 1010.2
20260506011604 17 179 1.6 9.7 0.00 0.00 0.00 76 1009.9
20260506011545 17 180 0.0 11.3 0.00 0.00 0.00 75 1009.7
20260506011345 17 211 1.6 9.7 0.00 0.00 0.00 75 1010.1
20260506010853 17 148 3.2 17.7 0.00 0.00 0.00 76 1010.1
20260506010346 17 175 1.6 17.7 0.00 0.00 0.00 76 1010.1
20260506010110 17 88 1.6 19.3 0.00 0.00 0.00 76 1009.7
20260506010047 17 227 1.6 6.4 0.00 0.00 0.00 75 1009.6
20260506005852 17 184 3.2 6.4 0.00 0.00 0.00 75 1010.0
20260506005342 18 245 0.0 6.4 0.00 0.00 0.00 75 1009.9
20260506004853 18 209 1.6 4.8 0.00 0.00 0.00 74 1009.9
20260506004621 18 215 0.0 4.8 0.00 0.00 0.00 75 1009.7
20260506004536 18 0 0.0 4.8 0.00 0.00 0.00 74 1009.5
20260506004343 18 216 1.6 4.8 0.00 0.00 0.00 74 1009.8
20260506003837 18 221 0.0 4.8 0.00 0.00 0.00 73 1009.8
20260506003349 18 162 1.6 3.2 0.00 0.00 0.00 73 1009.8
20260506003110 18 219 0.0 8.0 0.00 0.00 0.00 73 1009.5
20260506003042 18 0 0.0 8.0 0.00 0.00 0.00 72 1009.5
20260506002856 18 184 1.6 8.0 0.00 0.00 0.00 73 1009.7
20260506002346 18 186 3.2 8.0 0.00 0.00 0.00 72 1009.7
20260506001836 18 212 1.6 6.4 0.00 0.00 0.00 72 1009.5
20260506001620 18 213 1.6 6.4 0.00 0.00 0.00 73 1009.3
20260506001542 18 190 1.6 6.4 0.00 0.00 0.00 72 1009.1
20260506001346 19 209 3.2 6.4 0.00 0.00 0.00 72 1009.5
20260506000837 19 177 1.6 4.8 0.00 0.00 0.00 72 1009.4
20260506000348 19 158 1.6 3.2 0.00 0.00 0.00 73 1009.5
20260506000110 19 176 0.0 4.8 0.00 0.00 0.00 72 1009.2
20260506000039 19 0 0.0 6.4 0.00 0.00 0.00 72 1009.1
20260505235916 19 164 1.6 4.8 0.00 0.00 0.00 72 1009.5
20260505235345 20 177 3.2 4.8 0.00 0.00 0.00 71 1009.2
20260505234857 20 175 1.6 8.0 0.00 0.00 0.00 71 1009.2
20260505234620 20 172 0.0 8.0 0.00 0.00 0.00 71 1009.0
20260505234602 20 171 1.6 8.0 0.00 0.00 0.00 71 1009.0
20260505234345 20 197 3.2 8.0 0.00 0.00 0.00 70 1009.3
20260505233835 20 199 3.2 4.8 0.00 0.00 0.00 68 1009.2
20260505233348 20 206 1.6 4.8 0.00 0.00 0.00 69 1009.1
20260505233113 20 194 0.0 4.8 0.00 0.00 0.00 69 1008.7
20260505233038 20 209 1.6 4.8 0.00 0.00 0.00 68 1008.6
20260505232855 20 231 1.6 4.8 0.00 0.00 0.00 68 1008.9
20260505232406 21 188 1.6 6.4 0.00 0.00 0.00 67 1008.8
20260505231855 21 151 1.6 8.0 0.00 0.00 0.00 66 1008.7
20260505231605 21 236 3.2 8.0 0.00 0.00 0.00 65 1008.5
20260505231538 21 248 3.2 8.0 0.00 0.00 0.00 65 1008.5
20260505231344 21 228 3.2 8.0 0.00 0.00 0.00 65 1008.7
20260505230853 21 153 1.6 8.0 0.00 0.00 0.00 66 1008.6
20260505230344 21 242 4.8 16.1 0.00 0.00 0.00 65 1008.5
20260505230108 21 202 3.2 16.1 0.00 0.00 0.00 64 1008.2
20260505230046 21 192 4.8 16.1 0.00 0.00 0.00 64 1008.1
20260505225849 21 222 3.2 6.4 0.00 0.00 0.00 64 1008.4
20260505225339 22 144 1.6 6.4 0.00 0.00 0.00 65 1008.3
20260505224849 22 142 1.6 6.4 0.00 0.00 0.00 65 1008.3
20260505224617 21 173 1.6 6.4 0.00 0.00 0.00 63 1008.1
20260505224540 21 195 1.6 6.4 0.00 0.00 0.00 63 1008.0
20260505224339 22 157 1.6 4.8 0.00 0.00 0.00 63 1008.3
20260505223848 22 213 1.6 8.0 0.00 0.00 0.00 62 1008.2
20260505223341 22 186 3.2 8.0 0.00 0.00 0.00 61 1008.2
20260505223109 22 192 1.6 12.9 0.00 0.00 0.00 62 1007.9
20260505223044 22 209 1.6 12.9 0.00 0.00 0.00 62 1007.7
20260505222849 22 188 3.2 12.9 0.00 0.00 0.00 61 1008.1
20260505222338 22 221 4.8 12.9 0.00 0.00 0.00 62 1008.1
20260505221848 22 170 1.6 6.4 0.00 0.00 0.00 61 1008.2
20260505221616 22 209 1.6 11.3 0.00 0.00 0.00 62 1008.0
20260505221539 22 196 1.6 11.3 0.00 0.00 0.00 63 1007.9
20260505221339 22 180 1.6 11.3 0.00 0.00 0.00 64 1008.3
20260505220849 22 222 3.2 6.4 0.00 0.00 0.00 61 1008.4
20260505220341 22 213 1.6 6.4 0.00 0.00 0.00 63 1008.3
20260505220040 22 201 1.6 9.7 0.00 0.00 0.00 62 1007.7
20260505215845 23 197 1.6 8.0 0.00 0.00 0.00 62 1008.2
20260505215416 23 218 1.6 9.7 0.00 0.00 0.00 61 1008.1
20260505214846 23 205 3.2 8.0 0.00 0.00 0.00 60 1008.0
20260505214616 23 54 1.6 8.0 0.00 0.00 0.00 60 1007.8
20260505214549 23 137 1.6 8.0 0.00 0.00 0.00 60 1007.6
20260505214340 23 155 3.2 6.4 0.00 0.00 0.00 61 1008.0
20260505213850 23 101 1.6 8.0 0.00 0.00 0.00 61 1008.0
20260505213341 23 142 3.2 8.0 0.00 0.00 0.00 59 1008.0
20260505213121 23 197 1.6 9.7 0.00 0.00 0.00 59 1007.7
20260505213043 23 201 1.6 12.9 0.00 0.00 0.00 59 1007.5
20260505212849 23 80 3.2 12.9 0.00 0.00 0.00 60 1007.9
20260505212338 23 51 3.2 12.9 0.00 0.00 0.00 59 1007.9
20260505211848 23 53 4.8 9.7 0.00 0.00 0.00 58 1007.9
20260505211613 23 208 3.2 12.9 0.00 0.00 0.00 59 1007.7
20260505211601 23 137 3.2 16.1 0.00 0.00 0.00 59 1007.5
20260505211339 24 130 3.2 12.9 0.00 0.00 0.00 58 1007.9
20260505210910 24 92 4.8 16.1 0.00 0.00 0.00 58 1007.9
20260505210341 24 156 4.8 12.9 0.00 0.00 0.00 59 1007.7
20260505210121 24 153 3.2 8.0 0.00 0.00 0.00 58 1007.4
20260505210040 24 172 3.2 12.9 0.00 0.00 0.00 57 1007.2
20260505205846 24 134 3.2 11.3 0.00 0.00 0.00 58 1007.7
20260505205358 24 144 4.8 12.9 0.00 0.00 0.00 58 1007.9
20260505204907 24 161 4.8 9.7 0.00 0.00 0.00 60 1007.9
20260505204611 24 174 3.2 9.7 0.00 0.00 0.00 58 1007.6
20260505204539 24 152 3.2 11.3 0.00 0.00 0.00 57 1007.4
20260505204337 25 159 3.2 11.3 0.00 0.00 0.00 58 1007.9
20260505203908 25 134 4.8 12.9 0.00 0.00 0.00 59 1008.0
20260505203358 25 137 4.8 12.9 0.00 0.00 0.00 57 1008.0
20260505203119 24 148 3.2 11.3 0.00 0.00 0.00 58 1007.9
20260505203055 24 86 3.2 19.3 0.00 0.00 0.00 58 1007.6
20260505202845 25 138 4.8 19.3 0.00 0.00 0.00 58 1008.1
20260505202354 25 234 6.4 19.3 0.00 0.00 0.00 56 1008.0
20260505201844 25 157 6.4 17.7 0.00 0.00 0.00 58 1008.0
20260505201612 25 134 4.8 11.3 0.00 0.00 0.00 59 1007.9
20260505201542 24 156 3.2 16.1 0.00 0.00 0.00 58 1007.8
20260505201336 25 169 4.8 14.5 0.00 0.00 0.00 59 1008.1
20260505200846 25 198 4.8 16.1 0.00 0.00 0.00 58 1008.2
20260505200359 25 171 8.0 14.5 0.00 0.00 0.00 56 1008.2
20260505200103 25 181 8.0 16.1 0.00 0.00 0.00 57 1008.0
20260505200048 25 198 6.4 16.1 0.00 0.00 0.00 56 1008.0
20260505195845 25 170 4.8 16.1 0.00 0.00 0.00 60 1008.3
20260505195356 25 188 6.4 16.1 0.00 0.00 0.00 59 1008.4
20260505194847 25 195 8.0 16.1 0.00 0.00 0.00 57 1008.4
20260505194615 25 167 6.4 16.1 0.00 0.00 0.00 59 1008.2
20260505194543 25 164 8.0 16.1 0.00 0.00 0.00 60 1008.2
20260505194337 25 163 9.7 16.1 0.00 0.00 0.00 57 1008.5
20260505193847 25 105 6.4 24.1 0.00 0.00 0.00 61 1008.6
20260505193356 25 222 6.4 24.1 0.00 0.00 0.00 57 1008.6
20260505193121 25 166 9.7 24.1 0.00 0.00 0.00 56 1008.4
20260505193038 25 189 8.0 22.5 0.00 0.00 0.00 56 1008.3
20260505192844 25 152 8.0 14.5 0.00 0.00 0.00 56 1008.6
20260505192336 25 227 4.8 17.7 0.00 0.00 0.00 57 1008.7
20260505191846 25 174 8.0 17.7 0.00 0.00 0.00 55 1008.7
20260505191632 25 178 6.4 12.9 0.00 0.00 0.00 56 1008.5
20260505191550 26 176 3.2 14.5 0.00 0.00 0.00 55 1008.3
20260505191335 26 204 1.6 14.5 0.00 0.00 0.00 55 1008.7
20260505190846 26 157 4.8 14.5 0.00 0.00 0.00 54 1008.6
20260505190418 26 147 8.0 16.1 0.00 0.00 0.00 54 1008.8
20260505190122 26 163 6.4 16.1 0.00 0.00 0.00 54 1008.7
20260505190042 26 207 4.8 16.1 0.00 0.00 0.00 54 1008.5
20260505185844 26 142 4.8 12.9 0.00 0.00 0.00 56 1008.9
20260505185354 27 80 4.8 12.9 0.00 0.00 0.00 55 1009.0
20260505184906 26 117 4.8 12.9 0.00 0.00 0.00 55 1009.1
20260505184615 26 140 3.2 12.9 0.00 0.00 0.00 53 1008.9
20260505184548 26 132 4.8 12.9 0.00 0.00 0.00 53 1008.7
20260505184335 27 86 4.8 12.9 0.00 0.00 0.00 55 1009.2
20260505183846 27 189 6.4 9.7 0.00 0.00 0.00 52 1009.2
20260505183341 27 166 4.8 16.1 0.00 0.00 0.00 52 1009.2
20260505183043 26 51 6.4 17.7 0.00 0.00 0.00 54 1008.9
20260505183005 26 80 8.0 16.1 0.00 0.00 0.00 55 1009.0
20260505182904 27 214 8.0 17.7 0.00 0.00 0.00 51 1009.3
20260505182351 27 213 8.0 11.3 0.00 0.00 0.00 52 1009.2
20260505181859 26 163 4.8 19.3 0.00 0.00 0.00 53 1009.2
20260505181606 26 186 6.4 19.3 0.00 0.00 0.00 52 1009.0
20260505181538 26 150 6.4 22.5 0.00 0.00 0.00 50 1008.8
20260505181348 27 169 8.0 19.3 0.00 0.00 0.00 53 1009.2
20260505180842 27 197 6.4 22.5 0.00 0.00 0.00 53 1009.2
20260505180350 27 227 9.7 22.5 0.00 0.00 0.00 48 1009.2
20260505180108 26 215 11.3 20.9 0.00 0.00 0.00 50 1009.0
20260505180036 26 239 8.0 19.3 0.00 0.00 0.00 50 1008.9
20260505175910 27 160 9.7 17.7 0.00 0.00 0.00 50 1009.2
20260505175359 26 104 8.0 19.3 0.00 0.00 0.00 51 1009.5
20260505174909 26 198 9.7 19.3 0.00 0.00 0.00 53 1009.4
20260505174616 26 228 8.0 14.5 0.00 0.00 0.00 51 1009.1
20260505174536 26 166 8.0 16.1 0.00 0.00 0.00 50 1009.1
20260505174338 26 191 8.0 14.5 0.00 0.00 0.00 52 1009.5
20260505173910 26 229 8.0 16.1 0.00 0.00 0.00 51 1009.5
20260505173400 26 164 4.8 14.5 0.00 0.00 0.00 54 1009.5
20260505173128 26 151 4.8 14.5 0.00 0.00 0.00 52 1009.3
20260505173041 26 239 4.8 14.5 0.00 0.00 0.00 51 1009.2
20260505172841 26 215 4.8 11.3 0.00 0.00 0.00 53 1009.5
20260505172353 26 155 4.8 17.7 0.00 0.00 0.00 53 1009.6
20260505171903 26 123 3.2 17.7 0.00 0.00 0.00 54 1009.6
20260505171611 26 103 3.2 17.7 0.00 0.00 0.00 55 1009.4
20260505171539 26 100 3.2 12.9 0.00 0.00 0.00 55 1009.2
20260505171352 26 157 4.8 12.9 0.00 0.00 0.00 54 1009.6
20260505170843 26 209 6.4 12.9 0.00 0.00 0.00 52 1009.7
20260505170339 26 200 4.8 11.3 0.00 0.00 0.00 55 1009.9
20260505170120 26 203 4.8 12.9 0.00 0.00 0.00 56 1009.7
20260505170040 26 197 4.8 12.9 0.00 0.00 0.00 55 1009.4
20260505165846 26 176 6.4 11.3 0.00 0.00 0.00 52 1009.8
20260505165354 26 164 4.8 11.3 0.00 0.00 0.00 56 1010.0
20260505164843 26 169 4.8 11.3 0.00 0.00 0.00 52 1010.0
20260505164608 26 211 4.8 9.7 0.00 0.00 0.00 54 1009.8
20260505164539 26 169 4.8 22.5 0.00 0.00 0.00 53 1009.6
20260505164354 26 175 4.8 17.7 0.00 0.00 0.00 52 1010.0
20260505163844 26 187 8.0 22.5 0.00 0.00 0.00 51 1010.2
20260505163355 26 202 11.3 22.5 0.00 0.00 0.00 52 1010.3
20260505163042 25 198 4.8 14.5 0.00 0.00 0.00 53 1009.7
20260505163002 25 213 6.4 14.5 0.00 0.00 0.00 53 1010.0
20260505162901 26 174 6.4 14.5 0.00 0.00 0.00 50 1010.3
20260505162349 26 147 3.2 12.9 0.00 0.00 0.00 53 1010.2
20260505161837 26 180 3.2 11.3 0.00 0.00 0.00 51 1010.4
20260505161621 25 100 1.6 11.3 0.00 0.00 0.00 54 1010.1
20260505161543 25 134 4.8 12.9 0.00 0.00 0.00 51 1009.7
20260505161347 25 232 6.4 11.3 0.00 0.00 0.00 50 1010.4
20260505160837 26 200 4.8 12.9 0.00 0.00 0.00 50 1010.5
20260505160347 26 215 1.6 17.7 0.00 0.00 0.00 50 1010.6
20260505160111 25 103 3.2 17.7 0.00 0.00 0.00 53 1010.5
20260505153107 24 128 1.6 12.9 0.00 0.00 0.00 53 1010.8
20260505153045 24 0 4.8 12.9 0.00 0.00 0.00 52 1010.4
20260505152848 25 217 6.4 12.9 0.00 0.00 0.00 53 1011.0
20260505152339 25 199 3.2 9.7 0.00 0.00 0.00 55 1011.0
20260505151910 24 267 4.8 12.9 0.00 0.00 0.00 55 1010.9
20260505151618 24 146 1.6 12.9 0.00 0.00 0.00 56 1010.7
20260505151543 24 150 3.2 12.9 0.00 0.00 0.00 54 1010.4
20260505151341 24 15 4.8 12.9 0.00 0.00 0.00 55 1011.0
20260505150852 24 192 4.8 12.9 0.00 0.00 0.00 58 1011.1
20260505150344 24 238 6.4 12.9 0.00 0.00 0.00 55 1011.3
20260505150110 23 232 4.8 12.9 0.00 0.00 0.00 57 1011.2
20260505140412 21 235 4.8 9.7 0.00 0.00 0.00 65 1011.4
20260505140109 21 239 1.6 11.3 0.00 0.00 0.00 66 1011.3
20260505124839 16 200 4.8 6.4 0.00 0.00 0.00 84 1011.2
20260505124607 15 202 1.6 8.0 0.00 0.00 0.00 86 1011.1
20260505124540 15 179 1.6 8.0 0.00 0.00 0.00 85 1010.6
20260505124349 15 215 3.2 8.0 0.00 0.00 0.00 87 1011.3
20260505123839 15 165 1.6 6.4 0.00 0.00 0.00 89 1011.3
20260505123350 15 174 3.2 6.4 0.00 0.00 0.00 91 1011.3
20260505123115 14 190 3.2 6.4 0.00 0.00 0.00 92 1011.3
20260505123038 14 183 3.2 8.0 0.00 0.00 0.00 92 1010.8
20260505122838 14 198 4.8 6.4 0.00 0.00 0.00 94 1011.2
20260505122347 13 190 1.6 6.4 0.00 0.00 0.00 96 1011.0
20260505121838 13 106 1.6 4.8 0.00 0.00 0.00 97 1011.0
20260505121608 13 189 1.6 9.7 0.00 0.00 0.00 97 1011.0
20260505121548 13 215 0.0 9.7 0.00 0.00 0.00 97 1010.3
20260505121411 13 155 1.6 9.7 0.00 0.00 0.00 97 1011.0
20260505120839 12 67 4.8 9.7 0.00 0.00 0.00 98 1011.1
20260505120351 12 156 1.6 4.8 0.00 0.00 0.00 98 1011.0
20260505120114 12 355 1.6 4.8 0.00 0.00 0.00 98 1010.8
20260505120042 12 5 0.0 6.4 0.00 0.00 0.00 97 1010.3
20260505115836 12 346 1.6 6.4 0.00 0.00 0.00 98 1010.9
20260505115348 12 348 1.6 6.4 0.00 0.00 0.00 98 1011.1
20260505114837 11 80 0.0 1.6 0.00 0.00 0.00 98 1011.3
20260505114607 11 108 0.0 1.6 0.00 0.00 0.00 98 1011.2
20260505114538 11 108 0.0 1.6 0.00 0.00 0.00 97 1010.7
20260505114410 11 108 0.0 1.6 0.00 0.00 0.00 98 1011.4
20260505113838 11 108 0.0 0.0 0.00 0.00 0.00 97 1011.7
20260505113348 10 108 0.0 1.6 0.00 0.00 0.00 97 1011.8
20260505113112 10 108 0.0 1.6 0.00 0.00 0.00 97 1011.7
20260505113054 10 0 0.0 1.6 0.00 0.00 0.00 97 1011.1
20260505112856 10 108 0.0 1.6 0.00 0.00 0.00 97 1011.6
20260505112345 9 108 0.0 0.0 0.00 0.00 0.00 97 1011.5
20260505111915 9 108 0.0 1.6 0.00 0.00 0.00 97 1011.5
20260505111603 8 108 0.0 1.6 0.00 0.00 0.00 97 1011.5
20260505111544 8 0 0.0 1.6 0.00 0.00 0.00 96 1010.9
20260505111406 8 108 0.0 1.6 0.00 0.00 0.00 97 1011.7
20260505110837 8 108 0.0 1.6 0.00 0.00 0.00 96 1011.7
20260505110349 8 108 1.6 1.6 0.00 0.00 0.00 96 1011.6
20260505110114 7 108 0.0 1.6 0.00 0.00 0.00 96 1011.5
20260505101855 7 108 0.0 0.0 0.00 0.00 0.00 96 1011.1
20260505101618 7 108 0.0 0.0 0.00 0.00 0.00 96 1011.0
20260505101544 7 0 0.0 0.0 0.00 0.00 0.00 95 1010.3
20260505101346 7 108 0.0 0.0 0.00 0.00 0.00 95 1011.0
20260505100855 7 108 0.0 1.6 0.00 0.00 0.00 96 1011.1
20260505100345 7 108 0.0 1.6 0.00 0.00 0.00 96 1011.0
20260505100108 7 108 0.0 1.6 0.00 0.00 0.00 96 1010.8
20260505100039 7 0 0.0 1.6 0.00 0.00 0.00 95 1010.1
20260505095851 7 108 0.0 1.6 0.00 0.00 0.00 95 1010.8
20260505095341 7 108 0.0 1.6 0.00 0.00 0.00 95 1010.8
20260505094848 7 108 0.0 1.6 0.00 0.00 0.00 95 1010.8
20260505094614 7 108 0.0 1.6 0.00 0.00 0.00 95 1010.7
20260505094536 7 0 0.0 1.6 0.00 0.00 0.00 95 1010.0
20260505094338 7 108 0.0 1.6 0.00 0.00 0.00 95 1010.8
20260505093849 7 108 0.0 1.6 0.00 0.00 0.00 95 1010.8
20260505093340 7 108 0.0 0.0 0.00 0.00 0.00 95 1010.8
20260505093106 7 108 0.0 0.0 0.00 0.00 0.00 95 1010.7
20260505093051 7 0 0.0 0.0 0.00 0.00 0.00 95 1009.9
20260505092846 7 108 0.0 0.0 0.00 0.00 0.00 95 1010.7
20260505092336 7 108 0.0 0.0 0.00 0.00 0.00 95 1010.7
20260505091847 7 108 0.0 1.6 0.00 0.00 0.00 95 1010.8
20260505091615 7 108 0.0 1.6 0.00 0.00 0.00 95 1010.8
20260505091542 7 0 0.0 1.6 0.00 0.00 0.00 95 1009.9
20260505091357 7 108 0.0 1.6 0.00 0.00 0.00 95 1010.8
20260505090906 7 108 0.0 0.0 0.00 0.00 0.00 95 1010.7
20260505090418 7 108 0.0 0.0 0.00 0.00 0.00 95 1010.6
20260505090123 7 108 0.0 0.0 0.00 0.00 0.00 95 1010.6
20260505090041 7 0 0.0 1.6 0.00 0.00 0.00 94 1009.8
20260505085842 7 108 0.0 1.6 0.00 0.00 0.00 95 1010.7
20260505085414 7 108 0.0 1.6 0.00 0.00 0.00 95 1010.7
20260505084843 7 108 0.0 0.0 0.00 0.00 0.00 95 1010.7
20260505084610 7 108 0.0 0.0 0.00 0.00 0.00 95 1010.6
20260505084540 7 0 0.0 1.6 0.00 0.00 0.00 94 1009.8
20260505084352 7 108 0.0 1.6 0.00 0.00 0.00 95 1010.6
20260505083906 7 108 0.0 1.6 0.00 0.00 0.00 95 1010.7
20260505083356 7 108 0.0 1.6 0.00 0.00 0.00 95 1010.8
20260505083101 7 0 0.0 1.6 0.00 0.00 0.00 94 1009.9
20260505083005 7 108 0.0 1.6 0.00 0.00 0.00 95 1010.6
20260505082903 7 108 0.0 1.6 0.00 0.00 0.00 95 1010.7
20260505082352 7 108 0.0 1.6 0.00 0.00 0.00 95 1010.7
20260505081842 7 108 0.0 1.6 0.00 0.00 0.00 95 1010.8
20260505081629 7 108 0.0 1.6 0.00 0.00 0.00 94 1010.8
20260505081542 7 0 0.0 1.6 0.00 0.00 0.00 94 1010.1
20260505081352 7 108 0.0 1.6 0.00 0.00 0.00 94 1010.8
20260505080842 7 108 1.6 1.6 0.00 0.00 0.00 94 1010.8
20260505080354 7 108 0.0 1.6 0.00 0.00 0.00 94 1010.9
20260505080043 7 0 0.0 1.6 0.00 0.00 0.00 94 1010.0
20260505080002 7 108 0.0 0.0 0.00 0.00 0.00 94 1010.8
20260505075900 7 108 0.0 1.6 0.00 0.00 0.00 94 1010.8
20260505075349 7 108 0.0 1.6 0.00 0.00 0.00 94 1010.9
20260505074838 7 108 0.0 1.6 0.00 0.00 0.00 94 1010.8
20260505074605 7 108 0.0 1.6 0.00 0.00 0.00 94 1010.7
20260505074540 7 0 0.0 1.6 0.00 0.00 0.00 93 1010.0
20260505074348 7 108 0.0 1.6 0.00 0.00 0.00 94 1010.7
20260505073839 7 108 0.0 0.0 0.00 0.00 0.00 94 1010.7
20260505073349 8 108 0.0 0.0 0.00 0.00 0.00 94 1010.6
20260505073115 7 108 0.0 1.6 0.00 0.00 0.00 94 1010.6
20260505073041 7 0 0.0 1.6 0.00 0.00 0.00 93 1009.9
20260505072837 8 108 0.0 1.6 0.00 0.00 0.00 94 1010.7
20260505072408 8 108 0.0 0.0 0.00 0.00 0.00 94 1010.7
20260505071857 8 108 0.0 1.6 0.00 0.00 0.00 94 1010.6
20260505071604 7 108 0.0 1.6 0.00 0.00 0.00 94 1010.6
20260505071536 7 0 0.0 1.6 0.00 0.00 0.00 93 1009.9
20260505071345 8 108 0.0 1.6 0.00 0.00 0.00 94 1010.6
20260505070855 8 108 0.0 0.0 0.00 0.00 0.00 93 1010.6
20260505070407 8 108 0.0 0.0 0.00 0.00 0.00 93 1010.7
20260505070113 7 108 0.0 0.0 0.00 0.00 0.00 93 1010.6
20260505070059 7 0 0.0 0.0 0.00 0.00 0.00 93 1010.0
20260505065915 8 108 0.0 0.0 0.00 0.00 0.00 94 1010.7
20260505065344 8 108 0.0 0.0 0.00 0.00 0.00 94 1010.7
20260505064855 8 108 0.0 1.6 0.00 0.00 0.00 93 1010.7
20260505064602 8 108 0.0 1.6 0.00 0.00 0.00 93 1010.6
20260505064548 8 0 0.0 1.6 0.00 0.00 0.00 93 1010.0
20260505064345 8 108 0.0 1.6 0.00 0.00 0.00 93 1010.7
20260505063854 8 108 0.0 1.6 0.00 0.00 0.00 93 1010.7
20260505063346 8 108 0.0 1.6 0.00 0.00 0.00 93 1010.7
20260505063118 8 108 0.0 1.6 0.00 0.00 0.00 93 1010.8
20260505063042 8 0 0.0 0.0 0.00 0.00 0.00 92 1010.1
20260505062853 8 108 0.0 0.0 0.00 0.00 0.00 93 1010.7
20260505062343 8 108 0.0 0.0 0.00 0.00 0.00 93 1010.8
20260505061838 8 108 0.0 0.0 0.00 0.00 0.00 93 1010.9
20260505061622 8 108 0.0 0.0 0.00 0.00 0.00 93 1010.8
20260505061607 8 0 0.0 0.0 0.00 0.00 0.00 92 1010.1
20260505061348 8 108 0.0 0.0 0.00 0.00 0.00 93 1010.8
20260505060838 8 108 0.0 0.0 0.00 0.00 0.00 93 1010.8
20260505060411 8 108 0.0 0.0 0.00 0.00 0.00 93 1010.9
20260505060108 8 108 0.0 1.6 0.00 0.00 0.00 93 1010.8
20260505060050 8 0 0.0 1.6 0.00 0.00 0.00 92 1010.1
20260505055856 8 108 0.0 1.6 0.00 0.00 0.00 92 1010.8
20260505055344 8 108 0.0 1.6 0.00 0.00 0.00 93 1010.9
20260505054852 8 108 0.0 0.0 0.00 0.00 0.00 92 1010.9
20260505054615 8 108 0.0 0.0 0.00 0.00 0.00 92 1010.8
20260505054545 8 0 0.0 0.0 0.00 0.00 0.00 92 1010.2
20260505054339 8 108 0.0 0.0 0.00 0.00 0.00 92 1010.9
20260505053849 8 108 0.0 0.0 0.00 0.00 0.00 92 1011.0
20260505053400 8 108 0.0 0.0 0.00 0.00 0.00 92 1010.9
20260505053117 8 108 0.0 0.0 0.00 0.00 0.00 92 1010.9
20260505053043 8 0 0.0 0.0 0.00 0.00 0.00 92 1010.3
20260505052843 8 108 0.0 0.0 0.00 0.00 0.00 92 1010.9
20260505052353 8 108 0.0 0.0 0.00 0.00 0.00 92 1011.0
20260505051843 9 108 0.0 0.0 0.00 0.00 0.00 92 1011.1
20260505051612 8 108 0.0 0.0 0.00 0.00 0.00 92 1011.0
20260505051541 8 0 0.0 0.0 0.00 0.00 0.00 91 1010.4
20260505051353 9 108 0.0 0.0 0.00 0.00 0.00 92 1011.1
20260505050843 9 108 0.0 0.0 0.00 0.00 0.00 92 1011.0
20260505050355 9 108 0.0 1.6 0.00 0.00 0.00 92 1011.1
20260505050120 8 108 0.0 1.6 0.00 0.00 0.00 92 1011.0